Location: Cadenet
(43.7345°N, 5.3750°E)
Time: 01:05:55
(UTC+00:00)

BREEZE-M DEB (TANK) - Pass Details

Date: 18 February 2020
Orbit: 670 x 22259 km, 51.2° (Epoch: 04 April)

Event Time Altitude Azimuth Distance (km) Brightness Sun altitude
Exits shadow 03:54:24 45° 313° (NW) 1,758 4.5 -29.4°
Maximum altitude 03:55:37 50° 343° (NNW) 1,484 4.3 -29.1°
Drops below altitude 10° 04:00:05 10° 61° (ENE) 2,320 6.4 -28.4°
Sets 04:01:49 0° 69° (ENE) 3,075 7.3 -28.0°
